Regional Weather Roundup
Issued by NWS

Home | Current Version | Previous Version | Graphics & Text | Print | Product List | Glossary On
Versions: 1 2 3 4 5 6 7 8 9 10 11 12 13 14 15 16 17 18 19 20 21 22 23 24 25 26 27 28 29 30 31 32 33 34 35 36 37 38 39 40 41 42 43 44 45 46 47 48 49 50
000
ASUS45 KABQ 281201
RWRNM
NEW MEXICO REGIONAL WEATHER ROUNDUP
NATIONAL WEATHER SERVICE ALBUQUERQUE NM
600 AM MDT FRI AUG 28 2015

NOTE: "FAIR" MEANS FEW OR NO CLOUDS BELOW 12,000 FEET AGL WITH NO
       SIGNIFICANT WEATHER OR OBSTRUCTIONS TO VISION.

      THIS PRODUCT IS RELEASED AS TWO VERSIONS.  ONE VERSION NEAR
      THE TOP OF THE HOUR CONTAINING PRELIMINARY DATA FROM ALBUQUERQUE
      AND OTHER STATIONS.  A FINAL VERSION WITH ADDITIONAL DATA IS
      ISSUED ABOUT 10 MINUTES AFTER THE HOUR.

NMZ501-503-504-510>518-281300-
NORTHWEST PLATEAU/NORTHCENTRAL MOUNTAINS

CITY           SKY/WX    TMP DP  RH WIND       PRES   REMARKS
FARMINGTON     CLEAR     56  51  84 E7        30.21S
6HR MIN TEMP:  55; 6HR MAX TEMP:  69;

SANTA FE       CLEAR     59  49  69 N10       30.25S
6HR MIN TEMP:  57; 6HR MAX TEMP:  64;

TAOS           PTCLDY    48  39  71 CALM      30.34F

$$
NMZ402-403-502-505>509-281300-
WESTCENTRAL MOUNTAINS/SOUTHWEST MOUNTAINS

CITY           SKY/WX    TMP DP  RH WIND       PRES   REMARKS
GALLUP         CLEAR     53  51  93 CALM      30.30S
6HR MIN TEMP:  52; 6HR MAX TEMP:  62;

SILVER CITY      N/A     63  54  72 NW12      30.20S

$$
NMZ407-409-411-412-281300-
SOUTHERN DESERTS

CITY           SKY/WX    TMP DP  RH WIND       PRES   REMARKS
DEMING         CLEAR     65  56  72 SW3       30.11R
6HR MIN TEMP:  64; 6HR MAX TEMP:  74;

HOLLOMAN AFB   PTCLDY    68  55  64 VRB2      30.06S
ALAMOGORDO     PTCLDY    66  54  63 E5        30.09R
T OR C         CLEAR     69  52  54 NW7       30.14R
6HR MIN TEMP:  69; 6HR MAX TEMP:  76;


$$
NMZ519>523-281300-
CENTRAL VALLEYS/CENTRAL HIGHLANDS

CITY           SKY/WX    TMP DP  RH WIND       PRES   REMARKS
ALBUQUERQUE    PTCLDY    65  56  72 CALM      30.20S
6HR MIN TEMP:  64; 6HR MAX TEMP:  70;

DOUBLE EAGLE   CLEAR     54  50  87 W5        30.23F
MORIARTY ARPT  FAIR      54  49  81 CALM      30.26R
6HR MIN TEMP:  52; 6HR MAX TEMP:  61;

CLINES CORNERS CLEAR     57  49  74 N6        30.29R
6HR MIN TEMP:  57; 6HR MAX TEMP:  61;

BELEN          FAIR      61  56  83 CALM      30.19S
6HR MIN TEMP:  60; 6HR MAX TEMP:  69;

SOCORRO        NOT AVBL

$$
NMZ524>526-539-540-281300-
SOUTHCENTRAL MOUNTAINS

CITY           SKY/WX    TMP DP  RH WIND       PRES   REMARKS
RUIDOSO        PTCLDY    63  50  63 MISG      30.30S

$$
NMZ527>531-281300-
NORTHEAST HIGHLANDS/NORTHEAST PLAINS

CITY           SKY/WX    TMP DP  RH WIND       PRES   REMARKS
LAS VEGAS      CLEAR     53  46  77 N7        30.28R
6HR MIN TEMP:  52; 6HR MAX TEMP:  64;

RATON          PTCLDY    53  50  89 E6        30.23S
6HR MIN TEMP:  53; 6HR MAX TEMP:  64;

CLAYTON        PTCLDY    64  56  75 NW7       30.15R
6HR MIN TEMP:  64; 6HR MAX TEMP:  68;


$$
NMZ532>537-281300-
EASTCENTRAL PLAINS

CITY           SKY/WX    TMP DP  RH WIND       PRES   REMARKS
TUCUMCARI      CLEAR     65  58  78 N10       30.07R
6HR MIN TEMP:  65; 6HR MAX TEMP:  75;

CANNON AFB     PTCLDY    69  54  59 W9        30.07S
6HR MIN TEMP:  68; 6HR MAX TEMP:  72;

CLOVIS AIRPORT PTCLDY    68  54  60 W10       30.09R

$$
NMZ028-029-538-281300-
SOUTHEAST PLAINS

CITY           SKY/WX    TMP DP  RH WIND       PRES   REMARKS
ROSWELL        PTCLDY    68  58  70 W5        30.05R
6HR MIN TEMP:  67; 6HR MAX TEMP:  76;

ARTESIA        CLEAR     68  57  68 NW6       30.05S
CARLSBAD       NOT AVBL


$$



USA.gov is the U.S. government's official web portal to all federal, state and local government web resources and services.